IGO581 EDDF-EDDS

Flight info

Callsign IGO581
Flight time 0h 20m
Altitude 15000
Route ANEKI2L/18 ANEKI Y163 NEKLO Y171 INKAM N850 KRH T128 BADSO BADSO2A
Aircraft A320/M-SDE3FGHIRWY/LB1

Departure

Time 2026-05-05 19:50
Airport Frankfurt Main Airport (EDDF)

Arrival

Time 2026-05-05 20:10
Airport Stuttgart Airport (EDDS)
Time Latitude Longitude Altitude Speed Heading
2026-05-05 19:13 50.04600 8.56791 378 ft 0 kts 294°
2026-05-05 19:36 50.04599 8.56795 378 ft 1 kts 294°
2026-05-05 19:36 50.04592 8.56820 378 ft 3 kts 289°
2026-05-05 19:36 50.04587 8.56850 378 ft 3 kts 276°
2026-05-05 19:36 50.04587 8.56879 378 ft 3 kts 244°
2026-05-05 19:37 50.04595 8.56896 378 ft 1 kts 205°
2026-05-05 19:37 50.04596 8.56896 378 ft 0 kts 205°
2026-05-05 19:40 50.04595 8.56896 378 ft 1 kts 205°
2026-05-05 19:41 50.04588 8.56891 378 ft 2 kts 204°
2026-05-05 19:41 50.04564 8.56874 378 ft 5 kts 204°
2026-05-05 19:41 50.04522 8.56856 378 ft 8 kts 185°
2026-05-05 19:41 50.04464 8.56843 378 ft 9 kts 211°
2026-05-05 19:42 50.04440 8.56784 378 ft 11 kts 247°
2026-05-05 19:42 50.04409 8.56661 378 ft 13 kts 249°
2026-05-05 19:42 50.04375 8.56515 378 ft 16 kts 250°
2026-05-05 19:42 50.04334 8.56346 378 ft 18 kts 249°
2026-05-05 19:43 50.04287 8.56148 378 ft 20 kts 249°
2026-05-05 19:43 50.04234 8.55929 378 ft 23 kts 249°
2026-05-05 19:43 50.04176 8.55688 378 ft 25 kts 249°
2026-05-05 19:43 50.04113 8.55423 378 ft 27 kts 250°
2026-05-05 19:44 50.04046 8.55138 378 ft 29 kts 249°
2026-05-05 19:44 50.03972 8.54832 378 ft 31 kts 250°
2026-05-05 19:44 50.03919 8.54608 378 ft 15 kts 249°
2026-05-05 19:44 50.03885 8.54468 378 ft 12 kts 249°
2026-05-05 19:45 50.03843 8.54339 378 ft 15 kts 236°
2026-05-05 19:45 50.03791 8.54189 378 ft 17 kts 249°
2026-05-05 19:45 50.03751 8.54027 378 ft 12 kts 249°
2026-05-05 19:45 50.03726 8.53920 378 ft 4 kts 249°
2026-05-05 19:46 50.03713 8.53866 378 ft 7 kts 249°
2026-05-05 19:46 50.03694 8.53786 378 ft 9 kts 249°
2026-05-05 19:46 50.03668 8.53682 378 ft 12 kts 249°
2026-05-05 19:46 50.03637 8.53552 378 ft 14 kts 248°
2026-05-05 19:47 50.03598 8.53398 378 ft 16 kts 250°
2026-05-05 19:47 50.03556 8.53219 378 ft 19 kts 250°
2026-05-05 19:47 50.03506 8.53016 378 ft 21 kts 248°
2026-05-05 19:47 50.03465 8.52858 378 ft 7 kts 247°
2026-05-05 19:48 50.03459 8.52833 378 ft 1 kts 248°
2026-05-05 19:48 50.03456 8.52823 378 ft 2 kts 248°
2026-05-05 19:48 50.03447 8.52790 378 ft 5 kts 249°
2026-05-05 19:48 50.03433 8.52730 378 ft 7 kts 249°
2026-05-05 19:49 50.03409 8.52648 378 ft 9 kts 235°
2026-05-05 19:49 50.03347 8.52599 378 ft 7 kts 181°
2026-05-05 19:49 50.03304 8.52598 378 ft 10 kts 180°
2026-05-05 19:49 50.03042 8.52601 379 ft 73 kts 180°
2026-05-05 19:50 50.02290 8.52607 379 ft 140 kts 179°
2026-05-05 19:50 50.01176 8.52638 632 ft 164 kts 178°
2026-05-05 19:50 50.00032 8.52605 1211 ft 168 kts 181°
2026-05-05 19:50 49.98817 8.52618 1643 ft 182 kts 178°
2026-05-05 19:51 49.97504 8.52723 2090 ft 196 kts 176°
2026-05-05 19:51 49.96080 8.52849 2509 ft 214 kts 177°
2026-05-05 19:51 49.94547 8.52962 3101 ft 226 kts 177°
2026-05-05 19:51 49.92960 8.53067 3869 ft 230 kts 177°
2026-05-05 19:52 49.91340 8.53185 4616 ft 236 kts 178°
2026-05-05 19:52 49.89684 8.53316 5352 ft 241 kts 179°
2026-05-05 19:52 49.88015 8.53443 6117 ft 245 kts 181°
2026-05-05 19:52 49.86268 8.53567 6697 ft 260 kts 182°
2026-05-05 19:53 49.84349 8.53689 7044 ft 285 kts 181°
2026-05-05 19:53 49.82320 8.53827 7419 ft 305 kts 181°
2026-05-05 19:53 49.80150 8.53988 7869 ft 320 kts 181°
2026-05-05 19:53 49.77870 8.54097 8308 ft 333 kts 185°
2026-05-05 19:54 49.75514 8.53891 8712 ft 346 kts 188°
2026-05-05 19:54 49.73078 8.53553 9224 ft 354 kts 189°
2026-05-05 19:54 49.70612 8.53173 9872 ft 358 kts 189°
2026-05-05 19:54 49.68120 8.52805 10518 ft 362 kts 188°
2026-05-05 19:55 49.65602 8.52466 11154 ft 365 kts 188°
2026-05-05 19:55 49.63054 8.52161 11771 ft 370 kts 186°
2026-05-05 19:55 49.60475 8.52537 12378 ft 379 kts 169°
2026-05-05 19:55 49.58043 8.54191 12980 ft 388 kts 149°
2026-05-05 19:56 49.55868 8.56713 13523 ft 395 kts 143°
2026-05-05 19:56 49.53739 8.59467 13796 ft 407 kts 142°
2026-05-05 19:56 49.51553 8.62331 13980 ft 419 kts 142°
2026-05-05 19:56 49.49265 8.65218 14152 ft 431 kts 143°
2026-05-05 19:57 49.46884 8.68081 14477 ft 437 kts 145°
2026-05-05 19:57 49.44454 8.70919 14847 ft 439 kts 145°
2026-05-05 19:57 49.42018 8.73767 14996 ft 441 kts 145°
2026-05-05 19:57 49.39595 8.76659 14997 ft 441 kts 144°
2026-05-05 19:58 49.37195 8.79567 14827 ft 440 kts 144°
2026-05-05 19:58 49.34793 8.82486 14578 ft 438 kts 144°
2026-05-05 19:58 49.32397 8.85367 14329 ft 437 kts 144°
2026-05-05 19:58 49.30010 8.88211 13957 ft 435 kts 144°
2026-05-05 19:59 49.27629 8.91041 13461 ft 431 kts 144°
2026-05-05 19:59 49.25269 8.93846 12955 ft 428 kts 144°
2026-05-05 19:59 49.22924 8.96630 12353 ft 424 kts 144°
2026-05-05 19:59 49.20605 8.99382 11839 ft 421 kts 144°
2026-05-05 20:00 49.18296 9.02124 11339 ft 418 kts 144°
2026-05-05 20:00 49.16006 9.04846 10840 ft 415 kts 144°
2026-05-05 20:00 49.13734 9.07549 10340 ft 413 kts 144°
2026-05-05 20:00 49.11474 9.10229 9840 ft 410 kts 144°
2026-05-05 20:01 49.09233 9.12870 9342 ft 407 kts 144°
2026-05-05 20:01 49.06996 9.15500 8841 ft 404 kts 144°
2026-05-05 20:01 49.04776 9.18110 8339 ft 401 kts 144°
2026-05-05 20:01 49.02584 9.20686 7665 ft 396 kts 144°
2026-05-05 20:02 49.00420 9.23233 6874 ft 391 kts 144°
2026-05-05 20:02 48.98274 9.25752 6072 ft 388 kts 143°
2026-05-05 20:02 48.96143 9.28248 5447 ft 382 kts 142°
2026-05-05 20:02 48.94083 9.30664 5065 ft 367 kts 142°
2026-05-05 20:03 48.92128 9.32950 4850 ft 349 kts 142°
2026-05-05 20:03 48.90235 9.35184 4673 ft 332 kts 142°
2026-05-05 20:03 48.88448 9.37279 4515 ft 317 kts 142°
2026-05-05 20:03 48.86742 9.39276 4372 ft 303 kts 142°
2026-05-05 20:04 48.85109 9.41190 4244 ft 290 kts 142°
2026-05-05 20:04 48.83564 9.43002 4127 ft 278 kts 142°
2026-05-05 20:04 48.82063 9.44761 4018 ft 267 kts 142°
2026-05-05 20:04 48.80625 9.46420 3993 ft 253 kts 146°
2026-05-05 20:05 48.79087 9.47528 3992 ft 238 kts 160°
2026-05-05 20:05 48.77561 9.48291 3992 ft 224 kts 162°
2026-05-05 20:05 48.76120 9.48959 3989 ft 210 kts 163°
2026-05-05 20:05 48.74745 9.49506 3980 ft 200 kts 175°
2026-05-05 20:06 48.73424 9.49046 3979 ft 199 kts 215°
2026-05-05 20:06 48.72592 9.47423 3990 ft 199 kts 254°
2026-05-05 20:06 48.72487 9.45383 4110 ft 185 kts 271°
2026-05-05 20:06 48.72495 9.43471 3908 ft 181 kts 270°
2026-05-05 20:07 48.72443 9.41561 3629 ft 182 kts 264°
2026-05-05 20:07 48.72223 9.39688 3366 ft 178 kts 257°
2026-05-05 20:07 48.71931 9.37911 3126 ft 169 kts 255°
2026-05-05 20:07 48.71631 9.36245 2895 ft 160 kts 255°
2026-05-05 20:08 48.71339 9.34660 2678 ft 152 kts 254°
2026-05-05 20:08 48.71056 9.33161 2478 ft 145 kts 254°
2026-05-05 20:08 48.70781 9.31701 2291 ft 144 kts 254°
2026-05-05 20:08 48.70507 9.30249 2100 ft 143 kts 254°
2026-05-05 20:09 48.70234 9.28802 1909 ft 143 kts 254°
2026-05-05 20:09 48.69959 9.27353 1717 ft 143 kts 254°
2026-05-05 20:09 48.69690 9.25914 1527 ft 142 kts 255°
2026-05-05 20:09 48.69421 9.24475 1336 ft 142 kts 253°
2026-05-05 20:10 48.69165 9.23141 1290 ft 111 kts 254°
2026-05-05 20:10 48.69002 9.22274 1290 ft 60 kts 254°
2026-05-05 20:10 48.68943 9.21885 1290 ft 22 kts 267°
2026-05-05 20:10 48.68947 9.21712 1290 ft 10 kts 278°
2026-05-05 20:11 48.68962 9.21624 1290 ft 4 kts 285°
2026-05-05 20:11 48.68972 9.21567 1290 ft 7 kts 285°
2026-05-05 20:11 48.68987 9.21483 1290 ft 10 kts 285°
2026-05-05 20:11 48.69005 9.21373 1290 ft 12 kts 283°
2026-05-05 20:12 48.69027 9.21235 1290 ft 13 kts 284°
2026-05-05 20:12 48.69043 9.21128 1290 ft 8 kts 269°
2026-05-05 20:12 48.69027 9.21027 1290 ft 11 kts 254°
2026-05-05 20:12 48.69004 9.20903 1290 ft 14 kts 253°
2026-05-05 20:13 48.68981 9.20781 1290 ft 11 kts 254°
2026-05-05 20:13 48.68963 9.20689 1290 ft 8 kts 254°
2026-05-05 20:13 48.68978 9.20610 1290 ft 9 kts 309°
2026-05-05 20:13 48.69025 9.20532 1290 ft 9 kts 314°
2026-05-05 20:14 48.69048 9.20496 1290 ft 5 kts 313°
2026-05-05 20:14 48.69061 9.20434 1290 ft 8 kts 264°
2026-05-05 20:14 48.69047 9.20352 1290 ft 7 kts 254°
2026-05-05 20:14 48.69035 9.20286 1290 ft 7 kts 254°
2026-05-05 20:15 48.69020 9.20215 1290 ft 6 kts 243°
2026-05-05 20:15 48.68987 9.20205 1290 ft 5 kts 163°
2026-05-05 20:15 48.68963 9.20216 1290 ft 4 kts 163°
2026-05-05 20:15 48.68957 9.20219 1290 ft 0 kts 164°